Other Public Products
Issued by NWS Grand Forks, ND

Home | Current Version | Previous Version | Graphics & Text | Print | Product List | Glossary On
Versions: 1 2 3 4 5 6 7 8 9 10 11 12 13 14 15 16 17 18 19 20 21 22 23 24 25 26 27 28 29 30 31 32 33 34 35 36 37 38 39 40 41 42 43 44 45 46 47 48 49 50
009
FPUS83 KFGF 101410
OPUFGF
PRAIRIE TO PINES WEATHER ROUNDUP
NATIONAL WEATHER SERVICE EASTERN NORTH DAKOTA/GRAND FORKS ND
800 AM CST WED FEB 10 2016

 **SATELLITE DATA USED TO AUGMENT SKY COVER AT AUTOMATED STATIONS**
 *****  WEATHER ACROSS EASTERN NORTH DAKOTA  *****

CITY           SKY/WX    TMP DP  RH WIND       PRES   REMARKS
GRAND FORKS    LGT SNOW   5  -1  76 E8        30.11F WCI  -8
GRAND FORKS AF FLURRIES   4  -2  77 E9        30.10F WCI -10
GRAND CITY NWS NOT AVBL
BUXTON           N/A      4   2  89 CALM        N/A
DEVILS LAKE    CLOUDY     4   0  83 E14       30.00S WCI -14
FARGO          LGT SNOW   8   3  80 E6        30.09F WCI  -2
WAHPETON ARPT  CLOUDY     9   3  78 E9        30.09F WCI  -5
$$

 *****  WEATHER ACROSS CENTRAL AND WESTERN NORTH DAKOTA  *****

CITY           SKY/WX    TMP DP  RH WIND       PRES   REMARKS
JAMESTOWN      LGT SNOW   6   2  83 E14       29.97S FOG     WCI -11
BISMARCK       CLOUDY    22  17  81 SE9       29.87R WCI  12
MINOT          CLOUDY    17   9  70 E12       29.90R WCI   4
MINOT AFB      CLOUDY    14  10  85 E14       29.92R WCI  -1
GARRISON         N/A     19  16  88 E9        29.84S WCI   8
WILLISTON      CLEAR     33  28  81 N7        29.87R
DICKINSON      CLEAR     31  25  78 W14       29.80R WCI  21
HETTINGER      CLEAR     27  22  81 W9        29.83R WCI  18
$$

 *****  OTHER OBSERVATIONS NORTHEAST NORTH DAKOTA  *****

CITY           SKY/WX    TMP DP  RH WIND       PRES   REMARKS
WALHALLA       FAIR       1   0  92 E8        30.12S WCI -12
LANGDON        CLOUDY     3  -2  78 E14       30.02R WCI -15
CAVALIER       FAIR       3   0  85 SE8       30.13S WCI -10
GRAFTON        PTSUNNY    3  -2  78 E9        30.15S HAZE    WCI -11
CANDO          NOT AVBL
FORT TOTTEN      N/A      4   0  83 SE7       29.95  WCI  -8
ROLLA          CLOUDY     3   0  85 SE12      29.98S WCI -13
RUGBY          CLOUDY     7   3  85 E14       29.97R WCI -10
 ***** THE ABOVE OBSERVATIONS ARE NON NWS ARE NOT QUALITY
        CONTROLLED AND MAY MIS-REPORT RAIN FOR SNOW...
$$

 *****  OTHER OBSERVATIONS SOUTHEAST NORTH DAKOTA *****

CITY           SKY/WX    TMP DP  RH WIND       PRES   REMARKS
COOPERSTOWN    NOT AVBL
VALLEY CITY    LGT SNOW   5   1  85 SE12      30.04R WCI -11
OAKES          LGT SNOW   9   5  85 E16       29.99S WCI  -9
GWINNER        CLOUDY    10   7  85 E13       30.02F WCI  -5
BUFFALO          N/A      4  -1  80 E12         N/A  WCI -12
WYNDMERE       NOT AVBL
 ***** THE ABOVE OBSERVATIONS ARE NON NWS ARE NOT QUALITY
       CONTROLLED AND MAY MIS-REPORT RAIN FOR SNOW...
$$

  *****  WEATHER ACROSS NORTHERN MINNESOTA  *****

CITY           SKY/WX    TMP DP  RH WIND       PRES   REMARKS
FLAG ISLAND    PTCLDY   -18 -24  76 CALM      30.16S
WARROAD        PTCLDY   -15 -20  76 CALM      30.15S
ROSEAU         CLOUDY   -15 -18  84 NE5       30.16R WCI -27
HALLOCK        CLOUDY     1  -6  71 E7        30.15S WCI -11
THF RVR FALLS  CLOUDY     0  -6  78 E7        30.12S WCI -13
HALSTAD        NOT AVBL
FOSSTON          N/A     -2  -8  78 E3        30.10S
BAUDETTE       CLOUDY   -23 -30  70 CALM      30.13S
WASKISH        CLOUDY   -18 -24  76 CALM      30.12S
CROOKSTON      PTCLDY     3  -2  78 SE7       30.14S WCI  -9
$$
  *****  WEATHER ACROSS CENTRAL AND WEST MINNESOTA  *****

CITY           SKY/WX    TMP DP  RH WIND       PRES   REMARKS
BEMIDJI        CLOUDY    -6 -10  82 E7        30.08F WCI -20
PARK RAPIDS    CLOUDY    -2  -8  76 CALM      30.07R
WADENA         CLOUDY     0  -6  78 CALM      30.08S
DETROIT LAKES  CLOUDY     3  -2  78 SE7       30.07F WCI  -9
MOORHEAD       MIX PCPN   7   1  78 SE7       30.10F WCI  -5
FERGUS FALLS   LGT SNOW   5   0  78 E5        30.12F WCI  -4
ELBOW LAKE     NOT AVBL
MORRIS MN      LGT SNOW   7   1  78 E8        30.07S WCI  -6
STAPLES        CLOUDY    -2  -8  78 CALM      30.09S
WHEATON        LGT SNOW   9   7  92 E12       30.09F WCI  -6
$$
  *****  WEATHER ELSEWHERE ACROSS MINNESOTA  *****

CITY           SKY/WX    TMP DP  RH WIND       PRES   REMARKS
DULUTH         CLOUDY   -10 -16  74 N10       30.04R WCI -29
INTRNTL FALLS  CLOUDY   -16 -21  78 NE6       30.12F WCI -31
ELY            CLOUDY   -18 -24  76 CALM      30.08R
CLOQUET        CLOUDY   -11 -17  77 CALM      30.06S
BRAINERD       CLOUDY    -3  -9  75 NE8       30.10S WCI -18
HIBBING        CLOUDY   -18 -22  82 CALM      30.07S
ALEXANDRIA     CLOUDY     3  -5  69 E9        30.07S WCI -12
SAINT CLOUD    CLOUDY     2  -6  69 N3        30.12R
MINNEAPOLIS    MOCLDY     4  -5  66 N6        30.13R WCI  -7
$$

  *****  WEATHER ACROSS SOUTH DAKOTA  *****

CITY           SKY/WX    TMP DP  RH WIND       PRES   REMARKS
SIOUX FALLS    LGT SNOW  17  14  88 E10       29.98F FOG     WCI   5
BROOKINGS      LGT SNOW  12   8  84 E10       29.97S FOG     WCI  -1
WATERTOWN      LGT SNOW  11   6  81 SE7       29.96S VSB 3/4 WCI   0
HURON          CLOUDY    22  18  85 SE9       29.93F WCI  12
SISSETON         N/A      8   5  87 SE12      30.04S WCI  -7
ABERDEEN       LGT SNOW  17  12  80 E8        29.96S WCI   7
MITCHELL       CLOUDY    23  19  85 SE13      29.94F WCI  11
PIERRE         CLOUDY    21  19  92 CALM      29.85F
MOBRIDGE       CLOUDY    20  17  88 E8        29.84R WCI  10
RAPID CITY     CLEAR     40  24  53 NW12      29.89R
$$

  *****  SOME WEATHER IN NEARBY STATES *****

CITY           SKY/WX    TMP DP  RH WIND       PRES   REMARKS
GLASGOW MT     CLOUDY    32  26  78 NW12      29.96R WCI  23
GREAT FALLS MT CLOUDY    40  23  50 SW7       30.05R
CHEYENNE WY    CLOUDY    41  15  35 W22       30.16R
SCOTTSBLUFF NE CLEAR     36  25  64 NW13      30.04R
OMAHA NE       CLOUDY    26  19  74 S13       30.00F WCI  15
DES MOINES IA  LGT SNOW  16   9  74 CALM      30.10S
DAVENPORT IA   PTCLDY     7   0  73 NW9       30.11R WCI  -7
CHICAGO IL     MOSUNNY   10   1  67 W14       30.01R WCI  -6
EAU CLAIRE WI  PTCLDY    -3  -9  75 NE3       30.08F
LA CROSSE WI   PTCLDY     1  -7  68 CALM      30.11S
$$

  *****  SOME NATIONAL WEATHER *****

CITY           SKY/WX    TMP DP  RH WIND       PRES   REMARKS
LA GUARDIA NY  LGT SNOW  36  29  75 W9        29.62R
RALEIGH NC     SUNNY     29  14  53 W8        29.93R WCI  21
ATLANTA GA     MOSUNNY   24  11  57 NW17      30.13R WCI  11
NEW ORLEANS LA SUNNY     46  25  43 N7        30.34R
OKLAHOMA CITY  PTCLDY    29  24  82 S10       30.22F WCI  20
ALBUQUERQUE NM CLOUDY    32  19  58 NW6       30.43R
SALT LAKE CITY FOG       28  27  96 CALM      30.48R VSB 1/4
LOS ANGELES CA PTCLDY    65  29  25 CALM      30.12R
BOISE ID       PTCLDY    27  25  92 SE3       30.41S
SEATTLE WA     MOCLDY    50  39  66 SE6       30.08S
$$

*** WEATHER ACROSS MANITOBA...SASKATCHEWAN AND ONTARIO ***
                ***ONTARIO***

CITY           SKY/WX    TMP DP  RH WIND       PRES   REMARKS
GERALDTON      PTCLDY   -20 -26  76 NW8       30.01R WCI -39
THUNDER BAY    PTCLDY   -15 -22  70 W8        30.16R WCI -32
SIOUX LOOKOUT  PTCLDY   -29 -36  68 CALM      30.13S
TORONTO        SNOWSHWR  25  19  80 NW12      29.61R WCI  14
BIG TROUT LK   FLURRIES -27 -33  75 NW6       30.15S WCI -44
PICKLE LAKE    MOCLDY   -26 -33  68 W8        30.10R WCI -45
DRYDEN         CLEAR    -22 -26  83 E5        30.12S WCI -36
KENORA         PTCLDY   -17 -22  76 CALM      30.13R
$$
                *** MANITOBA***

CITY           SKY/WX    TMP DP  RH WIND       PRES   REMARKS
BRANDON        FLURRIES   3   0  85 E15         N/A  WCI -15
DAUPHIN        FLURRIES   3   0  85 E9        30.12R WCI -11
ISLAND LAKE    PTCLDY   -33 -40  68 CALM      30.23R
PILOT MOUND      N/A      1  -2  85 E12         N/A  WCI -15
THE PAS        FLURRIES  -4 -11  71 SE3       30.17R
THOMPSON       LGT SNOW -11 -17  77 NE2       30.25R
WINNIPEG       MOCLDY    -2  -9  71 SE7       30.19R WCI -16
LYNN LAKE      FLURRIES  -6 -11  77 NE6       30.19R WCI -18
GILLAM         PTCLDY   -31 -38  68 W7        30.25S WCI -50
$$
                ***SASKATCHEWAN***

CITY           SKY/WX    TMP DP  RH WIND       PRES   REMARKS
ESTEVAN        CLOUDY    16  12  86 E10       29.91R WCI   3
KINDERSLEY     CLOUDY    32  30  93 N10       30.03R WCI  24
LLOYDMINSTER   MOCLDY    30  27  86 N8        30.05R WCI  23
PRINCE ALBERT  CLOUDY    12   9  85 NE5       30.08R WCI   4
REGINA         CLOUDY    23  21  93 W6        29.94R WCI  16
YORKTON        FLURRIES   9   5  85 SE10      29.99F WCI  -6
N. BATTLEFORD  PTCLDY    27  27 100 N9        30.05S WCI  17
LA RONGE       FLURRIES   7   1  78 N6        30.16R WCC1F1C2F2C3F3C4F4C5F5C6F6C7F7C8F8C9F9CaFaCbFbCcFcCdFdCe!



USA.gov is the U.S. government's official web portal to all federal, state and local government web resources and services.